DW9936 Weather Reports


Display with metric or nautical units.
time (UTC)temp
F
wind
direction
speed
MPH
gust
MPH
rain 1hr
in
rain 24hr
in
rain mn
in
humidity
%
barometer
mb
20260901071554 74 194 0.0 4.0 0.00 0.00 0.00 55 1019.9
20260901070058 72 326 0.0 3.0 0.00 0.00 0.00 59 1019.8
20260901064546 71 315 1.0 12.0 0.00 0.00 0.00 60 1019.9
20260901063046 70 319 0.0 3.0 0.00 0.00 0.00 64 1019.8
20260901061537 67 279 0.0 1.0 0.00 0.00 0.00 72 1019.9
20260901060034 65 281 0.0 1.0 0.00 0.00 0.00 76 1019.8
20260901054529 63 281 0.0 1.0 0.00 0.00 0.00 79 1019.9
20260901053033 62 281 0.0 1.0 0.00 0.00 0.00 80 1019.9
20260901051524 62 238 0.0 1.0 0.00 0.00 0.00 80 1019.8
20260901050023 61 236 0.0 1.0 0.00 0.00 0.00 80 1019.8
20260901044522 61 234 0.0 2.0 0.00 0.00 0.00 82 1019.5
20260901043022 60 236 0.0 0.0 0.00 0.00 0.00 84 1019.4
20260901041517 60 236 0.0 1.0 0.00 0.00 0.00 85 1019.3
20260901040017 60 236 0.0 1.0 0.00 0.00 0.00 86 1019.4
20260901034515 58 235 0.0 4.0 0.00 0.00 0.00 89 1019.2
20260901033013 57 238 0.0 1.0 0.00 0.00 0.00 87 1019.1
20260901031512 57 238 0.0 0.0 0.00 0.00 0.00 87 1018.8
20260901030015 59 238 0.0 0.0 0.00 0.00 0.00 87 1018.8
20260901024506 59 238 0.0 0.0 0.00 0.00 0.00 86 1018.6
20260901023003 60 238 0.0 1.0 0.00 0.00 0.00 86 1018.6
20260901021502 60 238 0.0 1.0 0.00 0.00 0.00 87 1018.7
20260901020002 60 317 0.0 0.0 0.00 0.00 0.00 88 1018.5
20260901014501 60 317 0.0 1.0 0.00 0.00 0.00 88 1018.6
20260901013108 60 317 0.0 0.0 0.00 0.00 0.00 88 1018.5
20260901011557 60 317 0.0 0.0 0.00 0.00 0.00 87 1018.3
20260901010056 61 317 0.0 0.0 0.00 0.00 0.00 87 1018.2
20260901004557 61 317 0.0 0.0 0.00 0.00 0.00 87 1018.2
20260901003108 60 317 0.0 0.0 0.00 0.00 0.00 88 1018.1
20260901001607 60 318 0.0 0.0 0.00 0.00 0.00 89 1018.2
20260901000057 61 318 0.0 0.0 0.00 0.00 0.00 89 1018.2
20260831234602 61 318 0.0 0.0 0.00 0.00 0.00 88 1018.1
20260831233051 62 318 0.0 0.0 0.00 0.00 0.00 88 1018.0
20260831231546 62 318 0.0 0.0 0.00 0.00 0.00 88 1018.1
20260831230044 63 318 0.0 0.0 0.00 0.00 0.00 87 1018.1
20260831224541 64 318 0.0 0.0 0.00 0.00 0.00 86 1018.1
20260831223038 64 318 0.0 0.0 0.00 0.00 0.00 85 1018.2
20260831221541 65 317 0.0 1.0 0.00 0.00 0.00 84 1018.2
20260831220038 65 317 0.0 0.0 0.00 0.00 0.00 86 1018.2
20260831214535 65 317 0.0 0.0 0.00 0.00 0.00 86 1018.2
20260831213038 66 317 0.0 0.0 0.00 0.00 0.00 85 1018.2
20260831211531 66 317 0.0 1.0 0.00 0.00 0.00 84 1018.1
20260831210030 67 317 0.0 1.0 0.00 0.00 0.00 82 1017.9
20260831204526 68 317 0.0 0.0 0.00 0.00 0.00 79 1017.5
20260831203024 69 320 0.0 2.0 0.00 0.00 0.00 74 1017.4
20260831201530 70 321 0.0 3.0 0.00 0.00 0.00 70 1017.3
20260831200024 73 337 0.0 0.0 0.00 0.00 0.00 66 1016.9
20260831194532 74 337 0.0 1.0 0.00 0.00 0.00 53 1016.4
20260831193019 74 337 0.0 1.0 0.00 0.00 0.00 53 1015.8
20260831191514 75 338 0.0 1.0 0.00 0.00 0.00 53 1015.4
20260831190015 74 338 0.0 0.0 0.00 0.00 0.00 53 1015.3
20260831184522 75 338 0.0 0.0 0.00 0.00 0.00 53 1015.1
20260831183015 75 338 0.0 0.0 0.00 0.00 0.00 52 1014.7
20260831181519 76 338 0.0 0.0 0.00 0.00 0.00 49 1014.5
20260831180012 77 338 0.0 0.0 0.00 0.00 0.00 47 1014.4
20260831174512 78 338 0.0 0.0 0.00 0.00 0.00 46 1014.2
20260831173012 79 338 0.0 3.0 0.00 0.00 0.00 43 1014.2
20260831171511 80 340 0.0 3.0 0.00 0.00 0.00 42 1014.2
20260831170013 81 355 0.0 3.0 0.00 0.00 0.00 41 1014.1
20260831164511 81 167 0.0 6.0 0.00 0.00 0.00 41 1014.2
20260831163013 82 360 0.0 3.0 0.00 0.00 0.00 40 1014.3
20260831161513 82 332 0.0 4.0 0.00 0.00 0.00 40 1014.4
20260831160015 82 335 1.0 9.0 0.00 0.00 0.00 39 1014.3
20260831154514 83 333 2.0 9.0 0.00 0.00 0.00 39 1014.2
20260831153009 83 5 1.0 8.0 0.00 0.00 0.00 40 1014.3
20260831151507 84 317 0.0 4.0 0.00 0.00 0.00 39 1014.4
20260831150013 85 298 1.0 10.0 0.00 0.00 0.00 38 1014.6
20260831144517 86 22 1.0 8.0 0.00 0.00 0.00 37 1014.6
20260831143006 85 341 1.0 8.0 0.00 0.00 0.00 37 1014.5
20260831141505 85 327 2.0 10.0 0.00 0.00 0.00 37 1014.6
20260831140005 85 292 2.0 11.0 0.00 0.00 0.00 37 1014.6
20260831134504 85 313 0.0 9.0 0.00 0.00 0.00 39 1014.6
20260831133002 85 311 2.0 11.0 0.00 0.00 0.00 39 1014.7
20260831131558 83 322 2.0 9.0 0.00 0.00 0.00 42 1014.8
20260831130057 82 340 1.0 10.0 0.00 0.00 0.00 45 1014.9
20260831124551 79 323 0.0 10.0 0.00 0.00 0.00 51 1015.1
20260831123048 78 9 0.0 5.0 0.00 0.00 0.00 52 1015.3
20260831121545 77 201 0.0 4.0 0.00 0.00 0.00 53 1015.5
20260831120043 77 264 1.0 8.0 0.00 0.00 0.00 55 1015.6
20260831114541 77 178 0.0 5.0 0.00 0.00 0.00 57 1015.7
20260831113047 77 211 0.0 2.0 0.00 0.00 0.00 58 1015.6
20260831111603 77 341 0.0 5.0 0.00 0.00 0.00 59 1015.7
20260831110058 77 289 1.0 4.0 0.00 0.00 0.00 58 1015.6
20260831104537 76 55 0.0 4.0 0.00 0.00 0.00 60 1015.8
20260831103036 76 355 0.0 5.0 0.00 0.00 0.00 60 1015.7
20260831101534 76 197 0.0 2.0 0.00 0.00 0.00 62 1015.6
20260831100031 75 207 0.0 3.0 0.00 0.00 0.00 64 1015.6
20260831094530 74 240 0.0 3.0 0.00 0.00 0.00 66 1015.7
20260831093027 74 271 0.0 4.0 0.00 0.00 0.00 68 1015.7
20260831091520 73 178 0.0 1.0 0.00 0.00 0.00 68 1015.7
20260831090018 73 217 0.0 1.0 0.00 0.00 0.00 68 1015.5
20260831084531 72 202 0.0 3.0 0.00 0.00 0.00 68 1015.7
20260831083013 72 254 0.0 0.0 0.00 0.00 0.00 67 1015.2
20260831081520 71 254 0.0 0.0 0.00 0.00 0.00 67 1015.1
20260831080009 71 254 0.0 0.0 0.00 0.00 0.00 68 1015.0
20260831074522 69 336 0.0 2.0 0.00 0.00 0.00 71 1015.0
20260831073006 68 196 0.0 4.0 0.00 0.00 0.00 76 1015.3